Time,TemperatureF,DewpointF,PressureIn,WindDirection,WindDirectionDegrees,WindSpeedMPH,WindSpeedGustMPH,Humidity,HourlyPrecipIn,Conditions,Clouds,dailyrainin,SoftwareType,DateUTC
2013-03-25 00:00:00,51.7,2.9,29.94,North,0,0.9,2.7,14,0.00,,,0.00,WUHU216HW,2013-03-25 07:00:00,
2013-03-25 00:05:00,51.1,2.4,29.94,NNW,338,0.2,2.5,14,0.00,,,0.00,WUHU216HW,2013-03-25 07:05:00,
2013-03-25 00:10:00,50.9,2.3,29.94,NNW,338,1.1,1.1,14,0.00,,,0.00,WUHU216HW,2013-03-25 07:10:00,
2013-03-25 00:15:00,50.8,2.2,29.94,SSE,158,1.6,1.8,14,0.00,,,0.00,WUHU216HW,2013-03-25 07:15:00,
2013-03-25 00:20:00,50.8,2.2,29.93,SSE,158,1.1,1.8,14,0.00,,,0.00,WUHU216HW,2013-03-25 07:20:00,
2013-03-25 00:25:00,50.8,3.6,29.93,NNW,338,1.1,3.4,15,0.00,,,0.00,WUHU216HW,2013-03-25 07:25:00,
2013-03-25 00:30:00,50.4,3.3,29.94,WSW,248,0.2,3.4,15,0.00,,,0.00,WUHU216HW,2013-03-25 07:30:00,
2013-03-25 00:35:00,50.0,3.1,29.94,ESE,113,0.4,1.3,15,0.00,,,0.00,WUHU216HW,2013-03-25 07:35:00,
2013-03-25 00:40:00,49.7,2.8,29.94,SW,225,0.4,0.9,15,0.00,,,0.00,WUHU216HW,2013-03-25 07:40:00,
2013-03-25 00:45:00,49.3,2.5,29.94,WNW,293,0.0,1.3,15,0.00,,,0.00,WUHU216HW,2013-03-25 07:45:00,
2013-03-25 00:50:00,49.0,3.7,29.94,NW,315,0.0,1.1,16,0.00,,,0.00,WUHU216HW,2013-03-25 07:50:00,
2013-03-25 00:55:00,49.0,3.7,29.94,ENE,68,0.4,1.1,16,0.00,,,0.00,WUHU216HW,2013-03-25 07:55:00,
2013-03-25 01:00:00,49.5,4.2,29.94,ENE,68,0.4,1.1,16,0.00,,,0.00,WUHU216HW,2013-03-25 08:00:00,
2013-03-25 01:05:00,49.9,2.9,29.94,NNE,23,0.4,1.6,15,0.00,,,0.00,WUHU216HW,2013-03-25 08:05:00,
2013-03-25 01:10:00,50.8,3.6,29.94,NNE,23,1.1,1.6,15,0.00,,,0.00,WUHU216HW,2013-03-25 08:10:00,
2013-03-25 01:15:00,51.5,4.2,29.94,NW,315,0.4,1.8,15,0.00,,,0.00,WUHU216HW,2013-03-25 08:15:00,
2013-03-25 01:20:00,51.5,4.2,29.94,North,0,0.0,1.8,15,0.00,,,0.00,WUHU216HW,2013-03-25 08:20:00,
2013-03-25 01:25:00,51.1,4.0,29.94,North,0,0.0,1.3,15,0.00,,,0.00,WUHU216HW,2013-03-25 08:25:00,
2013-03-25 01:30:00,50.8,3.6,29.94,NNE,23,0.0,0.4,15,0.00,,,0.00,WUHU216HW,2013-03-25 08:30:00,
2013-03-25 01:35:00,50.2,4.7,29.94,NNE,23,0.0,0.4,16,0.00,,,0.00,WUHU216HW,2013-03-25 08:35:00,
2013-03-25 01:40:00,49.5,4.2,29.94,NNE,23,0.0,0.0,16,0.00,,,0.00,WUHU216HW,2013-03-25 08:40:00,
2013-03-25 01:45:00,48.6,3.4,29.93,NNE,23,0.0,0.0,16,0.00,,,0.00,WUHU216HW,2013-03-25 08:45:00,
2013-03-25 01:50:00,47.9,4.3,29.93,North,0,0.0,0.0,17,0.00,,,0.00,WUHU216HW,2013-03-25 08:50:00,
2013-03-25 01:55:00,47.3,3.9,29.93,North,0,0.0,0.0,17,0.00,,,0.00,WUHU216HW,2013-03-25 08:55:00,
2013-03-25 02:00:00,47.2,3.7,29.93,North,0,0.0,0.2,17,0.00,,,0.00,WUHU216HW,2013-03-25 09:00:00,
2013-03-25 02:05:00,47.0,5.0,29.93,NW,315,0.4,1.6,18,0.00,,,0.00,WUHU216HW,2013-03-25 09:05:00,
2013-03-25 02:10:00,46.4,4.6,29.93,NW,315,0.0,1.6,18,0.00,,,0.00,WUHU216HW,2013-03-25 09:10:00,
2013-03-25 02:15:00,46.1,4.3,29.93,NW,315,0.0,0.4,18,0.00,,,0.00,WUHU216HW,2013-03-25 09:15:00,
2013-03-25 02:21:00,45.9,5.7,29.94,NW,315,0.0,0.0,19,0.00,,,0.00,WUHU216HW,2013-03-25 09:21:00,
2013-03-25 02:26:00,45.7,7.0,29.94,SSE,158,0.0,0.4,20,0.00,,,0.00,WUHU216HW,2013-03-25 09:26:00,
2013-03-25 02:31:00,45.4,6.7,29.94,SW,225,0.0,0.4,20,0.00,,,0.00,WUHU216HW,2013-03-25 09:31:00,
2013-03-25 02:36:00,45.0,6.4,29.94,SW,225,0.0,0.2,20,0.00,,,0.00,WUHU216HW,2013-03-25 09:36:00,
2013-03-25 02:41:00,44.8,7.2,29.94,SW,225,0.0,0.0,21,0.00,,,0.00,WUHU216HW,2013-03-25 09:41:00,
2013-03-25 02:46:00,44.6,7.0,29.94,West,270,0.0,0.0,21,0.00,,,0.00,WUHU216HW,2013-03-25 09:46:00,
2013-03-25 02:51:00,44.3,6.7,29.93,West,270,0.0,0.2,21,0.00,,,0.00,WUHU216HW,2013-03-25 09:51:00,
2013-03-25 02:56:00,44.1,6.6,29.93,West,270,0.0,0.2,21,0.00,,,0.00,WUHU216HW,2013-03-25 09:56:00,
2013-03-25 03:01:00,44.1,7.5,29.94,WNW,293,0.0,0.2,22,0.00,,,0.00,WUHU216HW,2013-03-25 10:01:00,
2013-03-25 03:06:00,43.9,7.3,29.93,WNW,293,0.0,0.0,22,0.00,,,0.00,WUHU216HW,2013-03-25 10:06:00,
2013-03-25 03:11:00,43.9,7.3,29.93,WNW,293,0.0,0.0,22,0.00,,,0.00,WUHU216HW,2013-03-25 10:11:00,
2013-03-25 03:16:00,43.7,7.1,29.93,WNW,293,0.0,0.0,22,0.00,,,0.00,WUHU216HW,2013-03-25 10:16:00,
2013-03-25 03:21:00,43.7,7.1,29.93,SE,135,0.0,0.4,22,0.00,,,0.00,WUHU216HW,2013-03-25 10:21:00,
2013-03-25 03:26:00,43.9,7.3,29.94,North,0,0.0,1.1,22,0.00,,,0.00,WUHU216HW,2013-03-25 10:26:00,
2013-03-25 03:31:00,44.5,7.7,29.94,North,0,0.0,1.1,22,0.00,,,0.00,WUHU216HW,2013-03-25 10:31:00,
2013-03-25 03:36:00,45.0,8.2,29.94,North,0,0.0,0.4,22,0.00,,,0.00,WUHU216HW,2013-03-25 10:36:00,
2013-03-25 03:41:00,45.4,8.6,29.94,North,0,0.0,0.0,22,0.00,,,0.00,WUHU216HW,2013-03-25 10:41:00,
2013-03-25 03:46:00,45.0,8.2,29.94,West,270,0.4,0.4,22,0.00,,,0.00,WUHU216HW,2013-03-25 10:46:00,
2013-03-25 03:51:00,44.6,7.9,29.94,NW,315,0.4,0.9,22,0.00,,,0.00,WUHU216HW,2013-03-25 10:51:00,
2013-03-25 03:56:00,44.8,9.0,29.94,NNE,23,0.7,1.1,23,0.00,,,0.00,WUHU216HW,2013-03-25 10:56:00,
2013-03-25 04:01:00,45.5,9.5,29.94,NNW,338,0.4,1.1,23,0.00,,,0.00,WUHU216HW,2013-03-25 11:01:00,
2013-03-25 04:06:00,46.4,9.4,29.94,North,0,0.2,0.9,22,0.00,,,0.00,WUHU216HW,2013-03-25 11:06:00,
2013-03-25 04:11:00,47.0,9.8,29.94,NNW,338,2.0,2.0,22,0.00,,,0.00,WUHU216HW,2013-03-25 11:11:00,
2013-03-25 04:16:00,47.3,9.2,29.94,NW,315,2.0,2.2,21,0.00,,,0.00,WUHU216HW,2013-03-25 11:16:00,
2013-03-25 04:21:00,47.7,9.6,29.94,NNW,338,1.3,3.8,21,0.00,,,0.00,WUHU216HW,2013-03-25 11:21:00,
2013-03-25 04:26:00,48.2,9.0,29.93,North,0,0.2,3.8,20,0.00,,,0.00,WUHU216HW,2013-03-25 11:26:00,
2013-03-25 04:31:00,48.6,9.4,29.93,NNW,338,1.1,1.3,20,0.00,,,0.00,WUHU216HW,2013-03-25 11:31:00,
2013-03-25 04:36:00,48.8,9.5,29.93,NNW,338,0.4,4.0,20,0.00,,,0.00,WUHU216HW,2013-03-25 11:36:00,
2013-03-25 04:41:00,49.0,9.6,29.94,NNE,23,0.4,4.0,20,0.00,,,0.00,WUHU216HW,2013-03-25 11:41:00,
2013-03-25 04:46:00,49.1,9.8,29.94,NW,315,0.4,3.6,20,0.00,,,0.00,WUHU216HW,2013-03-25 11:46:00,
2013-03-25 04:51:00,48.8,9.5,29.94,NNE,23,0.9,2.9,20,0.00,,,0.00,WUHU216HW,2013-03-25 11:51:00,
2013-03-25 04:56:00,48.2,9.0,29.94,NNE,23,0.0,1.1,20,0.00,,,0.00,WUHU216HW,2013-03-25 11:56:00,
2013-03-25 05:01:00,47.9,9.6,29.94,NNE,23,0.0,1.1,21,0.00,,,0.00,WUHU216HW,2013-03-25 12:01:00,
2013-03-25 05:06:00,47.5,9.4,29.94,ENE,68,0.2,0.7,21,0.00,,,0.00,WUHU216HW,2013-03-25 12:06:00,
2013-03-25 05:11:00,46.8,8.7,29.94,ENE,68,0.0,0.7,21,0.00,,,0.00,WUHU216HW,2013-03-25 12:11:00,
2013-03-25 05:16:00,46.1,9.1,29.95,NE,45,0.0,0.4,22,0.00,,,0.00,WUHU216HW,2013-03-25 12:16:00,
2013-03-25 05:21:00,45.4,8.6,29.95,NE,45,0.0,0.4,22,0.00,,,0.00,WUHU216HW,2013-03-25 12:21:00,
2013-03-25 05:26:00,44.8,8.1,29.95,NE,45,0.0,0.0,22,0.00,,,0.00,WUHU216HW,2013-03-25 12:26:00,
2013-03-25 05:31:00,44.1,8.4,29.95,NE,45,0.0,0.0,23,0.00,,,0.00,WUHU216HW,2013-03-25 12:31:00,
2013-03-25 05:36:00,43.7,8.9,29.95,ENE,68,0.4,0.4,24,0.00,,,0.00,WUHU216HW,2013-03-25 12:36:00,
2013-03-25 05:41:00,43.6,8.7,29.95,ENE,68,0.0,0.4,24,0.00,,,0.00,WUHU216HW,2013-03-25 12:41:00,
2013-03-25 05:46:00,43.2,9.4,29.95,ENE,68,0.0,0.4,25,0.00,,,0.00,WUHU216HW,2013-03-25 12:46:00,
2013-03-25 05:51:00,42.8,9.0,29.96,ENE,68,0.0,0.0,25,0.00,,,0.00,WUHU216HW,2013-03-25 12:51:00,
2013-03-25 05:56:00,42.7,8.8,29.96,ENE,68,0.0,0.4,25,0.00,,,0.00,WUHU216HW,2013-03-25 12:56:00,
2013-03-25 06:01:00,42.1,8.5,29.96,ENE,68,0.0,0.4,25,0.00,,,0.00,WUHU216HW,2013-03-25 13:01:00,
2013-03-25 06:06:00,41.8,9.9,29.96,ENE,68,0.0,0.0,27,0.00,,,0.00,WUHU216HW,2013-03-25 13:06:00,
2013-03-25 06:11:00,41.4,9.6,29.96,ENE,68,0.0,0.0,27,0.00,,,0.00,WUHU216HW,2013-03-25 13:11:00,
2013-03-25 06:17:00,41.4,10.5,29.96,ENE,68,0.0,0.0,28,0.00,,,0.00,WUHU216HW,2013-03-25 13:17:00,
2013-03-25 06:22:00,41.4,10.5,29.97,ENE,68,0.0,0.0,28,0.00,,,0.00,WUHU216HW,2013-03-25 13:22:00,
2013-03-25 06:27:00,41.2,10.5,29.97,ENE,68,0.0,0.0,28,0.00,,,0.00,WUHU216HW,2013-03-25 13:27:00,
2013-03-25 06:32:00,41.4,11.4,29.97,ENE,68,0.0,0.2,29,0.00,,,0.00,WUHU216HW,2013-03-25 13:32:00,
2013-03-25 06:37:00,41.4,11.4,29.97,ENE,68,0.0,0.2,29,0.00,,,0.00,WUHU216HW,2013-03-25 13:37:00,
2013-03-25 06:42:00,41.2,11.4,29.97,NNE,23,0.0,0.2,29,0.00,,,0.00,WUHU216HW,2013-03-25 13:42:00,
2013-03-25 06:47:00,41.4,11.4,29.97,NE,45,0.0,0.4,29,0.00,,,0.00,WUHU216HW,2013-03-25 13:47:00,
2013-03-25 06:52:00,41.6,11.6,29.97,NE,45,0.0,0.4,29,0.00,,,0.00,WUHU216HW,2013-03-25 13:52:00,
2013-03-25 06:57:00,41.9,11.9,29.98,ENE,68,0.4,0.4,29,0.00,,,0.00,WUHU216HW,2013-03-25 13:57:00,
2013-03-25 07:02:00,42.3,12.2,29.98,ENE,68,0.0,0.4,29,0.00,,,0.00,WUHU216HW,2013-03-25 14:02:00,
2013-03-25 07:07:00,42.7,12.4,29.97,ENE,68,0.0,0.4,29,0.00,,,0.00,WUHU216HW,2013-03-25 14:07:00,
2013-03-25 07:12:00,44.5,12.2,29.98,NNW,338,0.7,0.9,27,0.00,,,0.00,WUHU216HW,2013-03-25 14:12:00,
2013-03-25 07:17:00,46.8,12.4,29.98,NNE,23,0.2,1.8,25,0.00,,,0.00,WUHU216HW,2013-03-25 14:17:00,
2013-03-25 07:22:00,48.4,12.0,29.98,NNW,338,0.2,1.8,23,0.00,,,0.00,WUHU216HW,2013-03-25 14:22:00,
2013-03-25 07:28:00,49.3,12.8,29.98,NW,315,1.6,1.8,23,0.00,,,0.00,WUHU216HW,2013-03-25 14:28:00,
2013-03-25 07:33:00,49.9,12.3,29.98,North,0,0.0,1.8,22,0.00,,,0.00,WUHU216HW,2013-03-25 14:33:00,
2013-03-25 07:38:00,49.9,13.2,29.98,North,0,0.0,1.3,23,0.00,,,0.00,WUHU216HW,2013-03-25 14:38:00,
2013-03-25 07:43:00,49.9,12.3,29.98,North,0,0.0,0.0,22,0.00,,,0.00,WUHU216HW,2013-03-25 14:43:00,
2013-03-25 07:48:00,50.0,12.4,29.98,North,0,0.0,0.0,22,0.00,,,0.00,WUHU216HW,2013-03-25 14:48:00,
2013-03-25 07:53:00,50.2,12.6,29.99,NNE,23,1.1,1.1,22,0.00,,,0.00,WUHU216HW,2013-03-25 14:53:00,
2013-03-25 07:58:00,50.8,13.1,29.99,NE,45,0.0,1.8,22,0.00,,,0.00,WUHU216HW,2013-03-25 14:58:00,
2013-03-25 08:03:00,51.1,13.3,29.99,NE,45,1.1,1.8,22,0.00,,,0.00,WUHU216HW,2013-03-25 15:03:00,
2013-03-25 08:08:00,51.7,13.8,29.99,ENE,68,1.1,1.8,22,0.00,,,0.00,WUHU216HW,2013-03-25 15:08:00,
2013-03-25 08:13:00,52.2,14.2,29.99,NE,45,1.1,2.5,22,0.00,,,0.00,WUHU216HW,2013-03-25 15:13:00,
2013-03-25 08:18:00,52.7,13.8,29.99,SSE,158,1.1,2.7,21,0.00,,,0.00,WUHU216HW,2013-03-25 15:18:00,
2013-03-25 08:23:00,52.9,13.9,29.99,NE,45,2.5,2.7,21,0.00,,,0.00,WUHU216HW,2013-03-25 15:23:00,
2013-03-25 08:28:00,53.3,14.1,29.99,ENE,68,0.7,2.7,21,0.00,,,0.00,WUHU216HW,2013-03-25 15:28:00,
2013-03-25 08:33:00,53.6,15.4,29.99,East,90,1.1,2.7,22,0.00,,,0.00,WUHU216HW,2013-03-25 15:33:00,
2013-03-25 08:38:00,54.0,15.8,29.99,SE,135,0.7,2.0,22,0.00,,,0.00,WUHU216HW,2013-03-25 15:38:00,
2013-03-25 08:43:00,54.4,17.9,30.00,East,90,1.8,2.2,24,0.00,,,0.00,WUHU216HW,2013-03-25 15:43:00,
2013-03-25 08:48:00,54.5,19.1,30.00,ENE,68,0.9,4.7,25,0.00,,,0.00,WUHU216HW,2013-03-25 15:48:00,
2013-03-25 08:53:00,54.9,19.4,30.00,East,90,1.6,4.7,25,0.00,,,0.00,WUHU216HW,2013-03-25 15:53:00,
2013-03-25 08:58:00,55.1,17.7,30.00,ESE,113,2.5,3.6,23,0.00,,,0.00,WUHU216HW,2013-03-25 15:58:00,
2013-03-25 09:03:00,55.3,17.7,30.00,East,90,1.8,3.6,23,0.00,,,0.00,WUHU216HW,2013-03-25 16:03:00,
2013-03-25 09:08:00,55.6,17.1,30.00,ENE,68,1.8,2.5,22,0.00,,,0.00,WUHU216HW,2013-03-25 16:08:00,
2013-03-25 09:13:00,55.8,17.3,30.00,ENE,68,3.4,3.4,22,0.00,,,0.00,WUHU216HW,2013-03-25 16:13:00,
2013-03-25 09:18:00,56.2,16.7,30.00,NE,45,1.8,3.4,21,0.00,,,0.00,WUHU216HW,2013-03-25 16:18:00,
2013-03-25 09:23:00,56.3,16.8,30.00,East,90,1.6,2.5,21,0.00,,,0.00,WUHU216HW,2013-03-25 16:23:00,
2013-03-25 09:28:00,56.5,16.9,30.00,East,90,0.9,3.6,21,0.00,,,0.00,WUHU216HW,2013-03-25 16:28:00,
2013-03-25 09:33:00,56.7,17.1,30.01,ESE,113,0.4,3.6,21,0.00,,,0.00,WUHU216HW,2013-03-25 16:33:00,
2013-03-25 09:38:00,56.9,16.3,30.00,NE,45,0.7,4.7,20,0.00,,,0.00,WUHU216HW,2013-03-25 16:38:00,
2013-03-25 09:43:00,57.2,16.6,30.01,NE,45,0.7,4.7,20,0.00,,,0.00,WUHU216HW,2013-03-25 16:43:00,
2013-03-25 09:48:00,57.6,16.8,30.01,NE,45,3.1,3.6,20,0.00,,,0.00,WUHU216HW,2013-03-25 16:48:00,
2013-03-25 09:53:00,57.6,15.3,30.01,ESE,113,0.4,3.8,19,0.00,,,0.00,WUHU216HW,2013-03-25 16:53:00,
2013-03-25 09:58:00,58.0,17.1,30.01,ESE,113,1.8,3.8,20,0.00,,,0.00,WUHU216HW,2013-03-25 16:58:00,
2013-03-25 10:03:00,58.1,14.2,30.01,NE,45,2.5,4.0,18,0.00,,,0.00,WUHU216HW,2013-03-25 17:03:00,
2013-03-25 10:08:00,58.3,14.3,30.01,NE,45,2.2,4.0,18,0.00,,,0.00,WUHU216HW,2013-03-25 17:08:00,
2013-03-25 10:13:00,58.7,14.6,30.01,ESE,113,1.8,2.9,18,0.00,,,0.00,WUHU216HW,2013-03-25 17:13:00,
2013-03-25 10:18:00,58.7,14.6,30.01,NE,45,1.8,3.6,18,0.00,,,0.00,WUHU216HW,2013-03-25 17:18:00,
2013-03-25 10:23:00,59.0,16.5,30.01,East,90,1.1,3.6,19,0.00,,,0.00,WUHU216HW,2013-03-25 17:23:00,
2013-03-25 10:28:00,59.2,16.7,30.01,SE,135,1.3,4.0,19,0.00,,,0.00,WUHU216HW,2013-03-25 17:28:00,
2013-03-25 10:33:00,59.4,16.7,30.01,NE,45,1.6,4.0,19,0.00,,,0.00,WUHU216HW,2013-03-25 17:33:00,
2013-03-25 10:38:00,59.8,17.1,30.01,ESE,113,0.4,4.3,19,0.00,,,0.00,WUHU216HW,2013-03-25 17:38:00,
2013-03-25 10:43:00,60.1,15.8,30.01,ESE,113,1.8,4.7,18,0.00,,,0.00,WUHU216HW,2013-03-25 17:43:00,
2013-03-25 10:48:00,60.1,15.8,30.01,ESE,113,0.9,4.7,18,0.00,,,0.00,WUHU216HW,2013-03-25 17:48:00,
2013-03-25 10:53:00,60.3,16.0,30.01,ENE,68,0.4,4.0,18,0.00,,,0.00,WUHU216HW,2013-03-25 17:53:00,
2013-03-25 10:58:00,60.5,16.2,30.01,ESE,113,1.8,4.0,18,0.00,,,0.00,WUHU216HW,2013-03-25 17:58:00,
2013-03-25 11:04:00,60.7,16.3,30.01,ESE,113,1.1,3.4,18,0.00,,,0.00,WUHU216HW,2013-03-25 18:04:00,
2013-03-25 11:09:00,61.2,16.7,30.00,SE,135,1.6,3.4,18,0.00,,,0.00,WUHU216HW,2013-03-25 18:09:00,
2013-03-25 11:14:00,61.6,18.6,30.00,SE,135,1.6,2.9,19,0.00,,,0.00,WUHU216HW,2013-03-25 18:14:00,
2013-03-25 11:19:00,62.1,17.5,30.00,ESE,113,2.0,3.8,18,0.00,,,0.00,WUHU216HW,2013-03-25 18:19:00,
2013-03-25 11:24:00,62.3,17.6,30.00,SW,225,0.7,3.8,18,0.00,,,0.00,WUHU216HW,2013-03-25 18:24:00,
2013-03-25 11:29:00,61.7,15.7,30.00,NE,45,2.0,2.9,17,0.00,,,0.00,WUHU216HW,2013-03-25 18:29:00,
2013-03-25 11:34:00,61.9,17.4,30.00,SE,135,2.5,2.9,18,0.00,,,0.00,WUHU216HW,2013-03-25 18:34:00,
2013-03-25 11:39:00,62.3,16.1,30.00,NNE,23,3.4,3.4,17,0.00,,,0.00,WUHU216HW,2013-03-25 18:39:00,
2013-03-25 11:44:00,62.6,17.9,30.00,ESE,113,1.8,3.4,18,0.00,,,0.00,WUHU216HW,2013-03-25 18:44:00,
2013-03-25 11:49:00,63.2,18.4,30.00,ESE,113,3.1,3.1,18,0.00,,,0.00,WUHU216HW,2013-03-25 18:49:00,
2013-03-25 11:54:00,63.2,16.7,30.00,ENE,68,1.8,5.4,17,0.00,,,0.00,WUHU216HW,2013-03-25 18:54:00,
2013-03-25 11:59:00,63.4,18.5,29.99,ENE,68,0.7,5.4,18,0.00,,,0.00,WUHU216HW,2013-03-25 18:59:00,
2013-03-25 12:04:00,63.9,17.4,29.99,ESE,113,1.8,5.6,17,0.00,,,0.00,WUHU216HW,2013-03-25 19:04:00,
2013-03-25 12:09:00,64.3,19.2,29.99,ESE,113,0.9,5.6,18,0.00,,,0.00,WUHU216HW,2013-03-25 19:09:00,
2013-03-25 12:14:00,64.6,19.4,29.99,SE,135,1.8,4.5,18,0.00,,,0.00,WUHU216HW,2013-03-25 19:14:00,
2013-03-25 12:19:00,65.0,18.2,29.99,SE,135,6.0,6.0,17,0.00,,,0.00,WUHU216HW,2013-03-25 19:19:00,
2013-03-25 12:24:00,65.3,20.1,29.99,ESE,113,2.2,6.3,18,0.00,,,0.00,WUHU216HW,2013-03-25 19:24:00,
2013-03-25 12:29:00,65.5,18.6,29.99,ENE,68,1.1,6.3,17,0.00,,,0.00,WUHU216HW,2013-03-25 19:29:00,
2013-03-25 12:34:00,65.5,18.6,29.99,East,90,1.8,4.0,17,0.00,,,0.00,WUHU216HW,2013-03-25 19:34:00,
2013-03-25 12:39:00,65.9,18.9,29.98,ENE,68,1.6,3.4,17,0.00,,,0.00,WUHU216HW,2013-03-25 19:39:00,
2013-03-25 12:44:00,65.7,18.7,29.98,SE,135,1.1,4.3,17,0.00,,,0.00,WUHU216HW,2013-03-25 19:44:00,
2013-03-25 12:49:00,66.1,17.5,29.98,SSW,203,3.6,4.3,16,0.00,,,0.00,WUHU216HW,2013-03-25 19:49:00,
2013-03-25 12:54:00,65.9,17.3,29.98,NE,45,1.8,4.3,16,0.00,,,0.00,WUHU216HW,2013-03-25 19:54:00,
2013-03-25 12:59:00,65.9,17.3,29.98,East,90,0.9,4.3,16,0.00,,,0.00,WUHU216HW,2013-03-25 19:59:00,
2013-03-25 13:04:00,66.2,17.7,29.98,NE,45,3.8,3.8,16,0.00,,,0.00,WUHU216HW,2013-03-25 20:04:00,
2013-03-25 13:09:00,65.9,17.3,29.98,SSE,158,2.5,4.0,16,0.00,,,0.00,WUHU216HW,2013-03-25 20:09:00,
2013-03-25 13:14:00,66.2,17.7,29.97,SE,135,2.5,5.4,16,0.00,,,0.00,WUHU216HW,2013-03-25 20:14:00,
2013-03-25 13:19:00,66.4,17.7,29.97,ESE,113,1.6,5.4,16,0.00,,,0.00,WUHU216HW,2013-03-25 20:19:00,
2013-03-25 13:24:00,66.4,17.7,29.97,NE,45,0.2,3.1,16,0.00,,,0.00,WUHU216HW,2013-03-25 20:24:00,
2013-03-25 13:29:00,66.6,17.9,29.97,SW,225,2.0,2.5,16,0.00,,,0.00,WUHU216HW,2013-03-25 20:29:00,
2013-03-25 13:34:00,66.6,16.3,29.97,SW,225,2.2,4.5,15,0.00,,,0.00,WUHU216HW,2013-03-25 20:34:00,
2013-03-25 13:39:00,66.6,17.9,29.97,East,90,1.3,4.5,16,0.00,,,0.00,WUHU216HW,2013-03-25 20:39:00,
2013-03-25 13:44:00,66.8,18.1,29.96,ESE,113,1.3,3.4,16,0.00,,,0.00,WUHU216HW,2013-03-25 20:44:00,
2013-03-25 13:49:00,67.0,18.2,29.96,NE,45,1.6,3.4,16,0.00,,,0.00,WUHU216HW,2013-03-25 20:49:00,
2013-03-25 13:54:00,67.3,18.6,29.96,East,90,1.6,4.5,16,0.00,,,0.00,WUHU216HW,2013-03-25 20:54:00,
2013-03-25 13:59:00,67.5,18.7,29.96,ESE,113,1.8,4.5,16,0.00,,,0.00,WUHU216HW,2013-03-25 20:59:00,
2013-03-25 14:04:00,67.7,17.3,29.96,South,180,1.1,3.4,15,0.00,,,0.00,WUHU216HW,2013-03-25 21:04:00,
2013-03-25 14:09:00,68.0,17.6,29.96,NE,45,2.5,3.4,15,0.00,,,0.00,WUHU216HW,2013-03-25 21:09:00,
2013-03-25 14:14:00,67.5,15.5,29.96,WSW,248,1.1,4.5,14,0.00,,,0.00,WUHU216HW,2013-03-25 21:14:00,
2013-03-25 14:19:00,67.5,17.1,29.96,ESE,113,1.1,4.5,15,0.00,,,0.00,WUHU216HW,2013-03-25 21:19:00,
2013-03-25 14:24:00,67.5,17.1,29.96,NE,45,2.9,4.5,15,0.00,,,0.00,WUHU216HW,2013-03-25 21:24:00,
2013-03-25 14:29:00,67.1,13.6,29.96,NNE,23,2.5,4.5,13,0.00,,,0.00,WUHU216HW,2013-03-25 21:29:00,
2013-03-25 14:34:00,66.6,13.1,29.96,East,90,1.6,5.6,13,0.00,,,0.00,WUHU216HW,2013-03-25 21:34:00,
2013-03-25 14:39:00,66.6,13.1,29.95,NE,45,1.3,5.6,13,0.00,,,0.00,WUHU216HW,2013-03-25 21:39:00,
2013-03-25 14:44:00,66.8,16.5,29.95,NNW,338,1.1,3.4,15,0.00,,,0.00,WUHU216HW,2013-03-25 21:44:00,
2013-03-25 14:49:00,67.1,16.8,29.95,ESE,113,0.7,2.7,15,0.00,,,0.00,WUHU216HW,2013-03-25 21:49:00,
2013-03-25 14:54:00,67.3,16.9,29.95,NE,45,2.0,4.0,15,0.00,,,0.00,WUHU216HW,2013-03-25 21:54:00,
2013-03-25 14:59:00,67.3,13.8,29.95,NE,45,2.2,4.0,13,0.00,,,0.00,WUHU216HW,2013-03-25 21:59:00,
2013-03-25 15:04:00,67.5,13.9,29.94,SSE,158,2.0,3.1,13,0.00,,,0.00,WUHU216HW,2013-03-25 22:04:00,
2013-03-25 15:09:00,68.0,14.3,29.95,WSW,248,1.6,4.5,13,0.00,,,0.00,WUHU216HW,2013-03-25 22:09:00,
2013-03-25 15:14:00,68.6,14.8,29.94,WSW,248,3.4,5.1,13,0.00,,,0.00,WUHU216HW,2013-03-25 22:14:00,
2013-03-25 15:19:00,68.8,14.9,29.94,SW,225,2.7,5.1,13,0.00,,,0.00,WUHU216HW,2013-03-25 22:19:00,
2013-03-25 15:24:00,68.8,14.9,29.94,WSW,248,0.7,5.1,13,0.00,,,0.00,WUHU216HW,2013-03-25 22:24:00,
2013-03-25 15:29:00,68.8,14.9,29.94,SW,225,3.8,3.8,13,0.00,,,0.00,WUHU216HW,2013-03-25 22:29:00,
2013-03-25 15:34:00,68.6,13.2,29.94,SSE,158,1.8,3.8,12,0.00,,,0.00,WUHU216HW,2013-03-25 22:34:00,
2013-03-25 15:39:00,68.6,14.8,29.94,ESE,113,0.9,3.8,13,0.00,,,0.00,WUHU216HW,2013-03-25 22:39:00,
2013-03-25 15:44:00,68.8,18.1,29.93,SE,135,4.3,6.3,15,0.00,,,0.00,WUHU216HW,2013-03-25 22:44:00,
2013-03-25 15:49:00,69.1,18.4,29.94,NE,45,0.9,6.3,15,0.00,,,0.00,WUHU216HW,2013-03-25 22:49:00,
2013-03-25 15:54:00,69.5,18.6,29.93,ESE,113,3.1,4.9,15,0.00,,,0.00,WUHU216HW,2013-03-25 22:54:00,
2013-03-25 15:59:00,69.5,18.6,29.93,SSE,158,2.2,4.5,15,0.00,,,0.00,WUHU216HW,2013-03-25 22:59:00,
2013-03-25 16:04:00,69.8,18.9,29.93,SSW,203,0.2,4.5,15,0.00,,,0.00,WUHU216HW,2013-03-25 23:04:00,
2013-03-25 16:09:00,70.2,19.2,29.93,ESE,113,3.1,4.0,15,0.00,,,0.00,WUHU216HW,2013-03-25 23:09:00,
2013-03-25 16:14:00,70.6,16.2,29.93,NE,45,0.2,4.0,13,0.00,,,0.00,WUHU216HW,2013-03-25 23:14:00,
2013-03-25 16:19:00,71.1,16.7,29.93,ESE,113,0.4,3.6,13,0.00,,,0.00,WUHU216HW,2013-03-25 23:19:00,
2013-03-25 16:24:00,71.1,18.3,29.93,ENE,68,0.7,3.6,14,0.00,,,0.00,WUHU216HW,2013-03-25 23:24:00,
2013-03-25 16:29:00,70.7,16.4,29.93,NE,45,1.8,3.4,13,0.00,,,0.00,WUHU216HW,2013-03-25 23:29:00,
2013-03-25 16:34:00,70.0,15.9,29.93,ENE,68,0.7,2.5,13,0.00,,,0.00,WUHU216HW,2013-03-25 23:34:00,
2013-03-25 16:39:00,69.7,15.6,29.93,ESE,113,1.1,2.5,13,0.00,,,0.00,WUHU216HW,2013-03-25 23:39:00,
2013-03-25 16:44:00,69.8,18.9,29.93,ESE,113,1.8,2.7,15,0.00,,,0.00,WUHU216HW,2013-03-25 23:44:00,
2013-03-25 16:49:00,70.2,19.2,29.93,SE,135,2.5,4.3,15,0.00,,,0.00,WUHU216HW,2013-03-25 23:49:00,
2013-03-25 16:54:00,71.6,20.3,29.93,SE,135,2.2,4.7,15,0.00,,,0.00,WUHU216HW,2013-03-25 23:54:00,
2013-03-25 16:59:00,72.5,17.8,29.94,SE,135,0.9,4.7,13,0.00,,,0.00,WUHU216HW,2013-03-25 23:59:00,
2013-03-25 17:04:00,72.7,18.0,29.93,South,180,4.0,4.5,13,0.00,,,0.00,WUHU216HW,2013-03-26 00:04:00,
2013-03-25 17:09:00,72.7,18.0,29.93,ESE,113,1.6,4.5,13,0.00,,,0.00,WUHU216HW,2013-03-26 00:09:00,
2013-03-25 17:14:00,72.2,17.6,29.94,West,270,0.7,4.0,13,0.00,,,0.00,WUHU216HW,2013-03-26 00:14:00,
2013-03-25 17:19:00,71.6,15.5,29.94,WSW,248,2.0,2.5,12,0.00,,,0.00,WUHU216HW,2013-03-26 00:19:00,
2013-03-25 17:24:00,71.6,15.5,29.94,WSW,248,0.0,2.5,12,0.00,,,0.00,WUHU216HW,2013-03-26 00:24:00,
2013-03-25 17:29:00,71.8,15.7,29.93,WNW,293,1.1,3.4,12,0.00,,,0.00,WUHU216HW,2013-03-26 00:29:00,
2013-03-25 17:34:00,72.0,15.8,29.94,SE,135,1.8,3.4,12,0.00,,,0.00,WUHU216HW,2013-03-26 00:34:00,
2013-03-25 17:39:00,72.0,17.4,29.94,ESE,113,2.0,2.9,13,0.00,,,0.00,WUHU216HW,2013-03-26 00:39:00,
2013-03-25 17:44:00,72.2,15.9,29.94,SSE,158,1.1,2.0,12,0.00,,,0.00,WUHU216HW,2013-03-26 00:44:00,
2013-03-25 17:49:00,71.6,15.5,29.94,SSW,203,1.3,2.2,12,0.00,,,0.00,WUHU216HW,2013-03-26 00:49:00,
2013-03-25 17:54:00,71.3,15.2,29.94,SW,225,0.4,2.2,12,0.00,,,0.00,WUHU216HW,2013-03-26 00:54:00,
2013-03-25 17:59:00,70.7,14.8,29.94,NE,45,1.1,2.0,12,0.00,,,0.00,WUHU216HW,2013-03-26 00:59:00,
2013-03-25 18:04:00,70.0,15.9,29.94,ESE,113,1.6,1.6,13,0.00,,,0.00,WUHU216HW,2013-03-26 01:04:00,
2013-03-25 18:09:00,69.7,15.6,29.94,ESE,113,1.6,1.8,13,0.00,,,0.00,WUHU216HW,2013-03-26 01:09:00,
2013-03-25 18:14:00,69.1,15.1,29.94,ESE,113,0.2,1.8,13,0.00,,,0.00,WUHU216HW,2013-03-26 01:14:00,
2013-03-25 18:19:00,68.8,14.9,29.94,ESE,113,0.2,1.6,13,0.00,,,0.00,WUHU216HW,2013-03-26 01:19:00,
2013-03-25 18:24:00,68.0,14.3,29.95,ESE,113,0.0,1.1,13,0.00,,,0.00,WUHU216HW,2013-03-26 01:24:00,
2013-03-25 18:29:00,66.8,13.3,29.95,ESE,113,0.0,1.1,13,0.00,,,0.00,WUHU216HW,2013-03-26 01:29:00,
2013-03-25 18:34:00,65.9,15.8,29.95,ESE,113,0.4,1.1,15,0.00,,,0.00,WUHU216HW,2013-03-26 01:34:00,
2013-03-25 18:39:00,65.0,15.0,29.95,ENE,68,0.2,1.1,15,0.00,,,0.00,WUHU216HW,2013-03-26 01:39:00,
2013-03-25 18:44:00,64.4,14.6,29.95,East,90,0.0,1.3,15,0.00,,,0.00,WUHU216HW,2013-03-26 01:44:00,
2013-03-25 18:49:00,63.7,14.0,29.95,East,90,0.0,1.3,15,0.00,,,0.00,WUHU216HW,2013-03-26 01:49:00,
2013-03-25 18:54:00,63.0,13.5,29.95,East,90,0.0,0.2,15,0.00,,,0.00,WUHU216HW,2013-03-26 01:54:00,
2013-03-25 18:59:00,62.6,13.2,29.96,East,90,0.7,0.7,15,0.00,,,0.00,WUHU216HW,2013-03-26 01:59:00,
2013-03-25 19:04:00,62.3,13.0,29.96,ENE,68,0.2,1.1,15,0.00,,,0.00,WUHU216HW,2013-03-26 02:04:00,
2013-03-25 19:09:00,61.9,12.7,29.96,ENE,68,0.9,1.1,15,0.00,,,0.00,WUHU216HW,2013-03-26 02:09:00,
2013-03-25 19:14:00,61.7,14.0,29.96,ENE,68,0.4,0.9,16,0.00,,,0.00,WUHU216HW,2013-03-26 02:14:00,
2013-03-25 19:19:00,61.4,13.8,29.96,ENE,68,0.0,0.9,16,0.00,,,0.00,WUHU216HW,2013-03-26 02:19:00,
2013-03-25 19:24:00,61.0,13.5,29.96,ENE,68,0.0,0.7,16,0.00,,,0.00,WUHU216HW,2013-03-26 02:24:00,
2013-03-25 19:29:00,60.8,13.3,29.96,ENE,68,0.0,0.7,16,0.00,,,0.00,WUHU216HW,2013-03-26 02:29:00,
2013-03-25 19:34:00,60.5,13.1,29.96,ENE,68,0.0,0.4,16,0.00,,,0.00,WUHU216HW,2013-03-26 02:34:00,
2013-03-25 19:39:00,60.1,12.8,29.96,ENE,68,0.0,0.4,16,0.00,,,0.00,WUHU216HW,2013-03-26 02:39:00,
2013-03-25 19:44:00,59.8,12.4,29.96,NE,45,0.0,0.0,16,0.00,,,0.00,WUHU216HW,2013-03-26 02:44:00,
2013-03-25 19:49:00,59.4,12.2,29.96,NE,45,0.0,0.0,16,0.00,,,0.00,WUHU216HW,2013-03-26 02:49:00,
2013-03-25 19:54:00,59.2,12.0,29.97,NE,45,0.0,0.0,16,0.00,,,0.00,WUHU216HW,2013-03-26 02:54:00,
2013-03-25 19:59:00,59.0,11.8,29.97,NNE,23,0.0,1.1,16,0.00,,,0.00,WUHU216HW,2013-03-26 02:59:00,
2013-03-25 20:04:00,58.7,13.1,29.97,NNE,23,0.2,1.1,17,0.00,,,0.00,WUHU216HW,2013-03-26 03:04:00,
2013-03-25 20:09:00,58.7,13.1,29.97,NNE,23,0.4,0.4,17,0.00,,,0.00,WUHU216HW,2013-03-26 03:09:00,
2013-03-25 20:14:00,58.9,13.2,29.97,NNE,23,0.7,1.3,17,0.00,,,0.00,WUHU216HW,2013-03-26 03:14:00,
2013-03-25 20:19:00,59.0,13.3,29.97,NNE,23,0.0,1.3,17,0.00,,,0.00,WUHU216HW,2013-03-26 03:19:00,
2013-03-25 20:24:00,58.9,13.2,29.97,NNE,23,0.0,1.1,17,0.00,,,0.00,WUHU216HW,2013-03-26 03:24:00,
2013-03-25 20:30:00,58.1,12.6,29.98,NNE,23,0.0,0.0,17,0.00,,,0.00,WUHU216HW,2013-03-26 03:30:00,
2013-03-25 20:35:00,57.4,12.1,29.98,NNE,23,0.0,0.0,17,0.00,,,0.00,WUHU216HW,2013-03-26 03:35:00,
2013-03-25 20:40:00,56.7,11.5,29.98,NNE,23,0.0,0.2,17,0.00,,,0.00,WUHU216HW,2013-03-26 03:40:00,
2013-03-25 20:45:00,56.0,12.5,29.98,NE,45,0.0,0.2,18,0.00,,,0.00,WUHU216HW,2013-03-26 03:45:00,
2013-03-25 20:50:00,55.6,12.3,29.99,ESE,113,0.4,0.7,18,0.00,,,0.00,WUHU216HW,2013-03-26 03:50:00,
2013-03-25 20:55:00,55.3,11.9,29.99,ESE,113,0.2,0.7,18,0.00,,,0.00,WUHU216HW,2013-03-26 03:55:00,
2013-03-25 21:00:00,55.1,11.7,29.99,East,90,0.0,0.4,18,0.00,,,0.00,WUHU216HW,2013-03-26 04:00:00,
2013-03-25 21:05:00,54.5,12.8,29.99,East,90,0.0,0.4,19,0.00,,,0.00,WUHU216HW,2013-03-26 04:05:00,
2013-03-25 21:10:00,54.4,14.1,29.99,East,90,0.0,0.0,20,0.00,,,0.00,WUHU216HW,2013-03-26 04:10:00,
2013-03-25 21:15:00,54.2,14.0,29.99,East,90,0.0,0.0,20,0.00,,,0.00,WUHU216HW,2013-03-26 04:15:00,
2013-03-25 21:20:00,53.8,13.7,29.99,ESE,113,0.0,0.9,20,0.00,,,0.00,WUHU216HW,2013-03-26 04:20:00,
2013-03-25 21:25:00,53.6,14.5,29.99,ESE,113,0.0,0.9,21,0.00,,,0.00,WUHU216HW,2013-03-26 04:25:00,
2013-03-25 21:30:00,53.3,14.1,29.99,ESE,113,0.0,0.2,21,0.00,,,0.00,WUHU216HW,2013-03-26 04:30:00,
2013-03-25 21:35:00,52.9,13.9,30.00,NNE,23,0.0,0.7,21,0.00,,,0.00,WUHU216HW,2013-03-26 04:35:00,
2013-03-25 21:40:00,52.9,13.9,30.00,NNE,23,0.0,0.7,21,0.00,,,0.00,WUHU216HW,2013-03-26 04:40:00,
2013-03-25 21:45:00,52.7,13.8,30.00,NNE,23,0.0,0.0,21,0.00,,,0.00,WUHU216HW,2013-03-26 04:45:00,
2013-03-25 21:50:00,52.4,13.4,30.00,NNW,338,0.0,0.2,21,0.00,,,0.00,WUHU216HW,2013-03-26 04:50:00,
2013-03-25 21:55:00,52.2,14.2,30.00,North,0,0.0,0.2,22,0.00,,,0.00,WUHU216HW,2013-03-26 04:55:00,
2013-03-25 22:00:00,52.0,14.0,30.01,North,0,0.0,0.0,22,0.00,,,0.00,WUHU216HW,2013-03-26 05:00:00,
2013-03-25 22:05:00,51.7,13.8,30.01,North,0,0.0,0.0,22,0.00,,,0.00,WUHU216HW,2013-03-26 05:05:00,
2013-03-25 22:10:00,51.5,13.7,30.00,North,0,0.0,0.0,22,0.00,,,0.00,WUHU216HW,2013-03-26 05:10:00,
2013-03-25 22:15:00,51.3,14.4,30.01,East,90,0.0,0.7,23,0.00,,,0.00,WUHU216HW,2013-03-26 05:15:00,
2013-03-25 22:20:00,51.3,14.4,30.01,East,90,0.0,0.7,23,0.00,,,0.00,WUHU216HW,2013-03-26 05:20:00,
2013-03-25 22:25:00,51.1,14.3,30.01,East,90,0.0,0.4,23,0.00,,,0.00,WUHU216HW,2013-03-26 05:25:00,
2013-03-25 22:30:00,50.8,14.0,30.01,North,0,0.7,0.7,23,0.00,,,0.00,WUHU216HW,2013-03-26 05:30:00,
2013-03-25 22:35:00,50.6,13.9,30.01,NE,45,0.0,0.9,23,0.00,,,0.00,WUHU216HW,2013-03-26 05:35:00,
2013-03-25 22:40:00,50.8,14.0,30.01,NE,45,0.0,0.9,23,0.00,,,0.00,WUHU216HW,2013-03-26 05:40:00,
2013-03-25 22:45:00,50.6,13.9,30.01,NE,45,0.0,0.0,23,0.00,,,0.00,WUHU216HW,2013-03-26 05:45:00,
2013-03-25 22:50:00,50.2,14.4,30.01,NE,45,0.0,0.0,24,0.00,,,0.00,WUHU216HW,2013-03-26 05:50:00,
2013-03-25 22:55:00,50.0,14.3,30.01,NE,45,0.0,0.2,24,0.00,,,0.00,WUHU216HW,2013-03-26 05:55:00,
2013-03-25 23:00:00,50.0,14.3,30.01,North,0,0.0,0.4,24,0.00,,,0.00,WUHU216HW,2013-03-26 06:00:00,
2013-03-25 23:05:00,49.9,14.1,30.01,NNE,23,0.0,0.4,24,0.00,,,0.00,WUHU216HW,2013-03-26 06:05:00,
2013-03-25 23:10:00,49.7,14.0,30.01,NNE,23,0.2,0.4,24,0.00,,,0.00,WUHU216HW,2013-03-26 06:10:00,
2013-03-25 23:15:00,49.3,13.7,30.01,NNE,23,0.0,0.4,24,0.00,,,0.00,WUHU216HW,2013-03-26 06:15:00,
2013-03-25 23:20:00,49.0,13.3,30.01,NNE,23,0.0,0.2,24,0.00,,,0.00,WUHU216HW,2013-03-26 06:20:00,
2013-03-25 23:25:00,48.6,14.0,30.01,NNE,23,0.0,0.0,25,0.00,,,0.00,WUHU216HW,2013-03-26 06:25:00,
2013-03-25 23:30:00,48.4,13.9,30.01,NE,45,0.0,0.0,25,0.00,,,0.00,WUHU216HW,2013-03-26 06:30:00,
2013-03-25 23:35:00,48.2,13.7,30.01,NE,45,0.0,0.2,25,0.00,,,0.00,WUHU216HW,2013-03-26 06:35:00,
2013-03-25 23:40:00,47.9,13.4,30.01,NE,45,0.0,0.2,25,0.00,,,0.00,WUHU216HW,2013-03-26 06:40:00,
2013-03-25 23:45:00,47.9,13.4,30.01,NE,45,0.0,0.0,25,0.00,,,0.00,WUHU216HW,2013-03-26 06:45:00,
2013-03-25 23:50:00,47.9,13.4,30.01,East,90,0.4,0.7,25,0.00,,,0.00,WUHU216HW,2013-03-26 06:50:00,
2013-03-25 23:55:00,47.9,14.3,30.01,East,90,0.0,0.7,26,0.00,,,0.00,WUHU216HW,2013-03-26 06:55:00,